owner,sensor,date,latitude,longitude,vertical_datum,direction_of_sea_water_velocity,sea_water_speed,upward_sea_water_velocity,qcFlag 
TABS,ioos:station:wmo:42051:1,2016-01-01T00:00:00Z,29.6350,-93.6417,2.0,252.4117749,29.08980921,-99999.0,'11111222,11111222,99999999' 
TABS,ioos:station:wmo:42051:1,2016-01-01T00:30:00Z,29.6350,-93.6417,2.0,252.5381831,29.59370372,-99999.0,'11111222,11111222,99999999' 
TABS,ioos:station:wmo:42051:1,2016-01-01T01:00:00Z,29.6350,-93.6417,2.0,249.7581739,30.69567396,-99999.0,'11111222,11111222,99999999' 
TABS,ioos:station:wmo:42051:1,2016-01-01T01:30:00Z,29.6350,-93.6417,2.0,253.8036978,31.72921997,-99999.0,'11111222,11111222,99999999' 
TABS,ioos:station:wmo:42051:1,2016-01-01T02:00:00Z,29.6350,-93.6417,2.0,257.9888651,32.38904136,-99999.0,'11111222,11111222,99999999' 
TABS,ioos:station:wmo:42051:1,2016-01-01T02:30:00Z,29.6350,-93.6417,2.0,250.1686162,31.54043278,-99999.0,'11111222,11111222,99999999' 
TABS,ioos:station:wmo:42051:1,2016-01-01T03:00:00Z,29.6350,-93.6417,2.0,247.5935313,33.60715698,-99999.0,'11111222,11111222,99999999' 
TABS,ioos:station:wmo:42051:1,2016-01-01T03:30:00Z,29.6350,-93.6417,2.0,244.9687861,32.23776822,-99999.0,'11111222,11111222,99999999' 
TABS,ioos:station:wmo:42051:1,2016-01-01T04:00:00Z,29.6350,-93.6417,2.0,248.5317972,33.17132044,-99999.0,'11111222,11111222,99999999' 
TABS,ioos:station:wmo:42051:1,2016-01-01T04:30:00Z,29.6350,-93.6417,2.0,240.2843367,36.05070041,-99999.0,'11111222,11111222,99999999' 
TABS,ioos:station:wmo:42051:1,2016-01-01T05:00:00Z,29.6350,-93.6417,2.0,248.6407927,31.49301192,-99999.0,'11111222,11111222,99999999' 
TABS,ioos:station:wmo:42051:1,2016-01-01T05:30:00Z,29.6350,-93.6417,2.0,249.3463792,31.04520897,-99999.0,'11111222,11111222,99999999' 
TABS,ioos:station:wmo:42051:1,2016-01-01T06:00:00Z,29.6350,-93.6417,2.0,239.1315386,39.03999232,-99999.0,'11111222,11111222,99999999' 
TABS,ioos:station:wmo:42051:1,2016-01-01T06:30:00Z,29.6350,-93.6417,2.0,248.1612318,37.39347804,-99999.0,'11111222,11111222,99999999' 
TABS,ioos:station:wmo:42051:1,2016-01-01T07:00:00Z,29.6350,-93.6417,2.0,252.4789152,35.4757847,-99999.0,'11111222,11111222,99999999' 
TABS,ioos:station:wmo:42051:1,2016-01-01T07:30:00Z,29.6350,-93.6417,2.0,249.782672,35.79532092,-99999.0,'11111222,11111222,99999999' 
TABS,ioos:station:wmo:42051:1,2016-01-01T08:00:00Z,29.6350,-93.6417,2.0,253.3035558,34.49419806,-99999.0,'11111222,11111222,99999999' 
TABS,ioos:station:wmo:42051:1,2016-01-01T08:30:00Z,29.6350,-93.6417,2.0,251.5038206,32.7517282,-99999.0,'11111222,11111222,99999999' 
TABS,ioos:station:wmo:42051:1,2016-01-01T09:00:00Z,29.6350,-93.6417,2.0,246.1593338,39.04116417,-99999.0,'11111222,11111222,99999999' 
TABS,ioos:station:wmo:42051:1,2016-01-01T09:30:00Z,29.6350,-93.6417,2.0,247.2787828,45.82622502,-99999.0,'11111222,11111222,99999999' 
TABS,ioos:station:wmo:42051:1,2016-01-01T10:00:00Z,29.6350,-93.6417,2.0,252.7739612,39.40759445,-99999.0,'11111222,11111222,99999999' 
TABS,ioos:station:wmo:42051:1,2016-01-01T10:30:00Z,29.6350,-93.6417,2.0,251.2963307,44.56330553,-99999.0,'11111222,11111222,99999999' 
TABS,ioos:station:wmo:42051:1,2016-01-01T11:00:00Z,29.6350,-93.6417,2.0,250.9174956,40.31528742,-99999.0,'11111222,11111222,99999999' 
TABS,ioos:station:wmo:42051:1,2016-01-01T11:30:00Z,29.6350,-93.6417,2.0,261.3564395,38.06225558,-99999.0,'11111222,11111222,99999999' 
TABS,ioos:station:wmo:42051:1,2016-01-01T12:00:00Z,29.6350,-93.6417,2.0,250.041662,42.83237094,-99999.0,'11111222,11111222,99999999' 
TABS,ioos:station:wmo:42051:1,2016-01-01T12:30:00Z,29.6350,-93.6417,2.0,260.2939962,42.58958558,-99999.0,'11111222,11111222,99999999' 
TABS,ioos:station:wmo:42051:1,2016-01-01T13:00:00Z,29.6350,-93.6417,2.0,247.8920916,43.44404447,-99999.0,'11111222,11111222,99999999' 
TABS,ioos:station:wmo:42051:1,2016-01-01T13:30:00Z,29.6350,-93.6417,2.0,249.662124,48.48230708,-99999.0,'11111222,11111222,99999999' 
TABS,ioos:station:wmo:42051:1,2016-01-01T14:00:00Z,29.6350,-93.6417,2.0,257.9751911,46.08106878,-99999.0,'11111222,11111222,99999999' 
TABS,ioos:station:wmo:42051:1,2016-01-01T14:30:00Z,29.6350,-93.6417,2.0,261.2013835,41.84235295,-99999.0,'11111222,11111222,99999999' 
TABS,ioos:station:wmo:42051:1,2016-01-01T15:00:00Z,29.6350,-93.6417,2.0,266.8392248,40.81206929,-99999.0,'11111222,11111222,99999999' 
TABS,ioos:station:wmo:42051:1,2016-01-01T15:30:00Z,29.6350,-93.6417,2.0,254.0212287,35.78243284,-99999.0,'11111222,11111222,99999999' 
TABS,ioos:station:wmo:42051:1,2016-01-01T16:00:00Z,29.6350,-93.6417,2.0,258.4275005,37.28795114,-99999.0,'11111222,11111222,99999999' 
TABS,ioos:station:wmo:42051:1,2016-01-01T16:30:00Z,29.6350,-93.6417,2.0,262.3369529,36.74814825,-99999.0,'11111222,11111222,99999999' 
TABS,ioos:station:wmo:42051:1,2016-01-01T17:00:00Z,29.6350,-93.6417,2.0,257.8376934,33.36892716,-99999.0,'11111222,11111222,99999999' 
TABS,ioos:station:wmo:42051:1,2016-01-01T17:30:00Z,29.6350,-93.6417,2.0,261.8120591,31.03634643,-99999.0,'11111222,11111222,99999999' 
TABS,ioos:station:wmo:42051:1,2016-01-01T18:00:00Z,29.6350,-93.6417,2.0,256.6328781,27.81345897,-99999.0,'11111222,11111222,99999999' 
TABS,ioos:station:wmo:42051:1,2016-01-01T18:30:00Z,29.6350,-93.6417,2.0,272.3063822,22.36811347,-99999.0,'11111222,11111222,99999999' 
TABS,ioos:station:wmo:42051:1,2016-01-01T19:00:00Z,29.6350,-93.6417,2.0,258.0205288,17.29666153,-99999.0,'11111222,11111222,99999999' 
TABS,ioos:station:wmo:42051:1,2016-01-01T19:30:00Z,29.6350,-93.6417,2.0,252.440285,22.14169144,-99999.0,'11111222,11111222,99999999' 
TABS,ioos:station:wmo:42051:1,2016-01-01T20:00:00Z,29.6350,-93.6417,2.0,247.2046319,20.13240174,-99999.0,'11111222,11111222,99999999' 
TABS,ioos:station:wmo:42051:1,2016-01-01T20:30:00Z,29.6350,-93.6417,2.0,261.3685709,22.3228,-99999.0,'11111222,11111222,99999999' 
TABS,ioos:station:wmo:42051:1,2016-01-01T21:00:00Z,29.6350,-93.6417,2.0,265.9910961,26.46474069,-99999.0,'11111222,11111222,99999999' 
TABS,ioos:station:wmo:42051:1,2016-01-01T21:30:00Z,29.6350,-93.6417,2.0,263.5643603,25.96359182,-99999.0,'11111222,11111222,99999999' 
TABS,ioos:station:wmo:42051:1,2016-01-01T22:00:00Z,29.6350,-93.6417,2.0,260.1079068,26.54460586,-99999.0,'11111222,11111222,99999999' 
TABS,ioos:station:wmo:42051:1,2016-01-01T22:30:00Z,29.6350,-93.6417,2.0,260.1926298,23.77745571,-99999.0,'11111222,11111222,99999999' 
TABS,ioos:station:wmo:42051:1,2016-01-01T23:00:00Z,29.6350,-93.6417,2.0,265.3156503,23.87975084,-99999.0,'11111222,11111222,99999999' 
TABS,ioos:station:wmo:42051:1,2016-01-01T23:30:00Z,29.6350,-93.6417,2.0,254.8695342,19.6926306,-99999.0,'11111222,11111222,99999999' 
TABS,ioos:station:wmo:42051:1,2016-01-02T00:00:00Z,29.6350,-93.6417,2.0,266.2288576,20.22378056,-99999.0,'11111222,11111222,99999999' 
TABS,ioos:station:wmo:42051:1,2016-01-02T00:30:00Z,29.6350,-93.6417,2.0,256.5862919,17.84682605,-99999.0,'11111222,11111222,99999999' 
TABS,ioos:station:wmo:42051:1,2016-01-02T01:00:00Z,29.6350,-93.6417,2.0,252.9418561,23.420269,-99999.0,'11111222,11111222,99999999' 
TABS,ioos:station:wmo:42051:1,2016-01-02T01:30:00Z,29.6350,-93.6417,2.0,263.6778173,20.61535835,-99999.0,'11111222,11111222,99999999' 
TABS,ioos:station:wmo:42051:1,2016-01-02T02:00:00Z,29.6350,-93.6417,2.0,266.8742152,19.25864481,-99999.0,'11111222,11111222,99999999' 
TABS,ioos:station:wmo:42051:1,2016-01-02T02:30:00Z,29.6350,-93.6417,2.0,265.4838608,17.27362151,-99999.0,'11111222,11111222,99999999' 
TABS,ioos:station:wmo:42051:1,2016-01-02T03:00:00Z,29.6350,-93.6417,2.0,252.1051823,16.7608174,-99999.0,'11111222,11111222,99999999' 
TABS,ioos:station:wmo:42051:1,2016-01-02T03:30:00Z,29.6350,-93.6417,2.0,259.0040101,19.66093843,-99999.0,'11111222,11111222,99999999' 
TABS,ioos:station:wmo:42051:1,2016-01-02T04:00:00Z,29.6350,-93.6417,2.0,262.595712,20.64210503,-99999.0,'11111222,11111222,99999999' 
TABS,ioos:station:wmo:42051:1,2016-01-02T04:30:00Z,29.6350,-93.6417,2.0,243.5367098,40.14642823,-99999.0,'11111222,11111222,99999999' 
TABS,ioos:station:wmo:42051:1,2016-01-02T05:00:00Z,29.6350,-93.6417,2.0,244.5051302,33.98969403,-99999.0,'11111222,11111222,99999999' 
TABS,ioos:station:wmo:42051:1,2016-01-02T05:30:00Z,29.6350,-93.6417,2.0,247.8239798,29.56704246,-99999.0,'11111222,11111222,99999999' 
TABS,ioos:station:wmo:42051:1,2016-01-02T06:00:00Z,29.6350,-93.6417,2.0,242.6403662,26.13320111,-99999.0,'11111222,11111222,99999999' 
TABS,ioos:station:wmo:42051:1,2016-01-02T06:30:00Z,29.6350,-93.6417,2.0,240.7172804,29.80899864,-99999.0,'11111222,11111222,99999999' 
TABS,ioos:station:wmo:42051:1,2016-01-02T07:00:00Z,29.6350,-93.6417,2.0,248.8821003,35.47219334,-99999.0,'11111222,11111222,99999999' 
TABS,ioos:station:wmo:42051:1,2016-01-02T07:30:00Z,29.6350,-93.6417,2.0,253.6996332,27.07840653,-99999.0,'11111222,11111222,99999999' 
TABS,ioos:station:wmo:42051:1,2016-01-02T08:00:00Z,29.6350,-93.6417,2.0,251.5285247,25.06105544,-99999.0,'11111222,11111222,99999999' 
TABS,ioos:station:wmo:42051:1,2016-01-02T08:30:00Z,29.6350,-93.6417,2.0,246.9741409,27.81608168,-99999.0,'11111222,11111222,99999999' 
TABS,ioos:station:wmo:42051:1,2016-01-02T09:00:00Z,29.6350,-93.6417,2.0,246.5584663,23.88091497,-99999.0,'11111222,11111222,99999999' 
TABS,ioos:station:wmo:42051:1,2016-01-02T09:30:00Z,29.6350,-93.6417,2.0,253.8604293,36.55048153,-99999.0,'11111222,11111222,99999999' 
TABS,ioos:station:wmo:42051:1,2016-01-02T10:00:00Z,29.6350,-93.6417,2.0,249.325545,29.54241866,-99999.0,'11111222,11111222,99999999' 
TABS,ioos:station:wmo:42051:1,2016-01-02T10:30:00Z,29.6350,-93.6417,2.0,254.9242081,27.68271844,-99999.0,'11111222,11111222,99999999' 
TABS,ioos:station:wmo:42051:1,2016-01-02T11:00:00Z,29.6350,-93.6417,2.0,262.3332849,22.18832351,-99999.0,'11111222,11111222,99999999' 
TABS,ioos:station:wmo:42051:1,2016-01-02T11:30:00Z,29.6350,-93.6417,2.0,251.5237771,22.15176065,-99999.0,'11111222,11111222,99999999' 
TABS,ioos:station:wmo:42051:1,2016-01-02T12:00:00Z,29.6350,-93.6417,2.0,246.513246,31.89210874,-99999.0,'11111222,11111222,99999999' 
TABS,ioos:station:wmo:42051:1,2016-01-02T12:30:00Z,29.6350,-93.6417,2.0,261.8781677,37.37483645,-99999.0,'11111222,11111222,99999999' 
TABS,ioos:station:wmo:42051:1,2016-01-02T13:00:00Z,29.6350,-93.6417,2.0,262.595759,29.56650977,-99999.0,'11111222,11111222,99999999' 
TABS,ioos:station:wmo:42051:1,2016-01-02T13:30:00Z,29.6350,-93.6417,2.0,263.6449627,26.29153856,-99999.0,'11111222,11111222,99999999' 
TABS,ioos:station:wmo:42051:1,2016-01-02T14:00:00Z,29.6350,-93.6417,2.0,260.623288,20.80800327,-99999.0,'11111222,11111222,99999999' 
TABS,ioos:station:wmo:42051:1,2016-01-02T14:30:00Z,29.6350,-93.6417,2.0,253.8199107,29.8940295,-99999.0,'11111222,11111222,99999999' 
TABS,ioos:station:wmo:42051:1,2016-01-02T15:00:00Z,29.6350,-93.6417,2.0,258.748249,26.85615758,-99999.0,'11111222,11111222,99999999' 
TABS,ioos:station:wmo:42051:1,2016-01-02T15:30:00Z,29.6350,-93.6417,2.0,268.3310039,23.00975663,-99999.0,'11111222,11111222,99999999' 
TABS,ioos:station:wmo:42051:1,2016-01-02T16:00:00Z,29.6350,-93.6417,2.0,259.7026536,38.93709928,-99999.0,'11111222,11111222,99999999' 
TABS,ioos:station:wmo:42051:1,2016-01-02T16:30:00Z,29.6350,-93.6417,2.0,266.0810532,27.36397084,-99999.0,'11111222,11111222,99999999' 
TABS,ioos:station:wmo:42051:1,2016-01-02T17:00:00Z,29.6350,-93.6417,2.0,267.430942,24.54466133,-99999.0,'11111222,11111222,99999999' 
TABS,ioos:station:wmo:42051:1,2016-01-02T17:30:00Z,29.6350,-93.6417,2.0,260.2215818,35.50578826,-99999.0,'11111222,11111222,99999999' 
TABS,ioos:station:wmo:42051:1,2016-01-02T18:00:00Z,29.6350,-93.6417,2.0,253.866259,26.37886465,-99999.0,'11111222,11111222,99999999' 
TABS,ioos:station:wmo:42051:1,2016-01-02T18:30:00Z,29.6350,-93.6417,2.0,262.5906816,34.04423152,-99999.0,'11111222,11111222,99999999' 
TABS,ioos:station:wmo:42051:1,2016-01-02T19:00:00Z,29.6350,-93.6417,2.0,259.3840329,34.46994198,-99999.0,'11111222,11111222,99999999' 
TABS,ioos:station:wmo:42051:1,2016-01-02T19:30:00Z,29.6350,-93.6417,2.0,257.3828779,28.97977398,-99999.0,'11111222,11111222,99999999' 
TABS,ioos:station:wmo:42051:1,2016-01-02T20:00:00Z,29.6350,-93.6417,2.0,256.737258,28.55147282,-99999.0,'11111222,11111222,99999999' 
TABS,ioos:station:wmo:42051:1,2016-01-02T20:30:00Z,29.6350,-93.6417,2.0,254.4609304,33.67066973,-99999.0,'11111222,11111222,99999999' 
TABS,ioos:station:wmo:42051:1,2016-01-02T21:00:00Z,29.6350,-93.6417,2.0,248.4546126,38.17748682,-99999.0,'11111222,11111222,99999999' 
TABS,ioos:station:wmo:42051:1,2016-01-02T21:30:00Z,29.6350,-93.6417,2.0,251.3731094,40.6702803,-99999.0,'11111222,11111222,99999999' 
TABS,ioos:station:wmo:42051:1,2016-01-02T22:00:00Z,29.6350,-93.6417,2.0,252.595442,44.2980293,-99999.0,'11111222,11111222,99999999' 
TABS,ioos:station:wmo:42051:1,2016-01-02T22:30:00Z,29.6350,-93.6417,2.0,250.9908533,41.04842262,-99999.0,'11111222,11111222,99999999' 
TABS,ioos:station:wmo:42051:1,2016-01-02T23:00:00Z,29.6350,-93.6417,2.0,253.7550099,42.61120158,-99999.0,'11111222,11111222,99999999' 
TABS,ioos:station:wmo:42051:1,2016-01-02T23:30:00Z,29.6350,-93.6417,2.0,253.2095874,47.15001591,-99999.0,'11111222,11111222,99999999' 
TABS,ioos:station:wmo:42051:1,2016-01-03T00:00:00Z,29.6350,-93.6417,2.0,256.4589801,36.73096922,-99999.0,'11111222,11111222,99999999' 
TABS,ioos:station:wmo:42051:1,2016-01-03T00:30:00Z,29.6350,-93.6417,2.0,249.6041688,35.49520813,-99999.0,'11111222,11111222,99999999' 
TABS,ioos:station:wmo:42051:1,2016-01-03T01:00:00Z,29.6350,-93.6417,2.0,254.1703284,31.85810101,-99999.0,'11111222,11111222,99999999' 
TABS,ioos:station:wmo:42051:1,2016-01-03T01:30:00Z,29.6350,-93.6417,2.0,257.0408083,32.37452857,-99999.0,'11111222,11111222,99999999' 
TABS,ioos:station:wmo:42051:1,2016-01-03T02:00:00Z,29.6350,-93.6417,2.0,249.3628601,35.72216399,-99999.0,'11111222,11111222,99999999' 
TABS,ioos:station:wmo:42051:1,2016-01-03T02:30:00Z,29.6350,-93.6417,2.0,249.7361459,41.02930904,-99999.0,'11111222,11111222,99999999' 
TABS,ioos:station:wmo:42051:1,2016-01-03T03:00:00Z,29.6350,-93.6417,2.0,250.0731976,39.72850488,-99999.0,'11111222,11111222,99999999' 
TABS,ioos:station:wmo:42051:1,2016-01-03T03:30:00Z,29.6350,-93.6417,2.0,255.0946718,39.0333191,-99999.0,'11111222,11111222,99999999' 
TABS,ioos:station:wmo:42051:1,2016-01-03T04:00:00Z,29.6350,-93.6417,2.0,251.3259217,35.66763939,-99999.0,'11111222,11111222,99999999' 
TABS,ioos:station:wmo:42051:1,2016-01-03T04:30:00Z,29.6350,-93.6417,2.0,246.1006802,38.45727499,-99999.0,'11111222,11111222,99999999' 
TABS,ioos:station:wmo:42051:1,2016-01-03T05:00:00Z,29.6350,-93.6417,2.0,248.1365062,34.47993039,-99999.0,'11111222,11111222,99999999' 
TABS,ioos:station:wmo:42051:1,2016-01-03T05:30:00Z,29.6350,-93.6417,2.0,240.3263841,31.75415721,-99999.0,'11111222,11111222,99999999' 
TABS,ioos:station:wmo:42051:1,2016-01-03T06:00:00Z,29.6350,-93.6417,2.0,243.3439455,31.09480021,-99999.0,'11111222,11111222,99999999' 
TABS,ioos:station:wmo:42051:1,2016-01-03T06:30:00Z,29.6350,-93.6417,2.0,229.3983794,25.90691992,-99999.0,'11111222,11111222,99999999' 
TABS,ioos:station:wmo:42051:1,2016-01-03T07:00:00Z,29.6350,-93.6417,2.0,227.6383163,25.49701943,-99999.0,'11111222,11111222,99999999' 
TABS,ioos:station:wmo:42051:1,2016-01-03T07:30:00Z,29.6350,-93.6417,2.0,230.7942049,26.89434141,-99999.0,'11111222,11111222,99999999' 
TABS,ioos:station:wmo:42051:1,2016-01-03T08:00:00Z,29.6350,-93.6417,2.0,221.8741752,26.06737616,-99999.0,'11111222,11111222,99999999' 
TABS,ioos:station:wmo:42051:1,2016-01-03T08:30:00Z,29.6350,-93.6417,2.0,224.5174091,25.20217848,-99999.0,'11111222,11111222,99999999' 
TABS,ioos:station:wmo:42051:1,2016-01-03T09:00:00Z,29.6350,-93.6417,2.0,224.0917965,25.88335759,-99999.0,'11111222,11111222,99999999' 
TABS,ioos:station:wmo:42051:1,2016-01-03T09:30:00Z,29.6350,-93.6417,2.0,233.6388432,24.76097736,-99999.0,'11111222,11111222,99999999' 
TABS,ioos:station:wmo:42051:1,2016-01-03T10:00:00Z,29.6350,-93.6417,2.0,237.650664,20.85689334,-99999.0,'11111222,11111222,99999999' 
TABS,ioos:station:wmo:42051:1,2016-01-03T10:30:00Z,29.6350,-93.6417,2.0,236.1261115,19.05404944,-99999.0,'11111222,11111222,99999999' 
TABS,ioos:station:wmo:42051:1,2016-01-03T11:00:00Z,29.6350,-93.6417,2.0,233.0845716,17.74800552,-99999.0,'11111222,11111222,99999999' 
TABS,ioos:station:wmo:42051:1,2016-01-03T11:30:00Z,29.6350,-93.6417,2.0,233.0008688,17.78004499,-99999.0,'11111222,11111222,99999999' 
TABS,ioos:station:wmo:42051:1,2016-01-03T12:00:00Z,29.6350,-93.6417,2.0,226.6146228,20.32325023,-99999.0,'11111222,11111222,99999999' 
TABS,ioos:station:wmo:42051:1,2016-01-03T12:30:00Z,29.6350,-93.6417,2.0,231.8312799,17.29844213,-99999.0,'11111222,11111222,99999999' 
TABS,ioos:station:wmo:42051:1,2016-01-03T13:00:00Z,29.6350,-93.6417,2.0,227.4498259,22.32963278,-99999.0,'11111222,11111222,99999999' 
TABS,ioos:station:wmo:42051:1,2016-01-03T13:30:00Z,29.6350,-93.6417,2.0,234.990323,16.2625736,-99999.0,'11111222,11111222,99999999' 
TABS,ioos:station:wmo:42051:1,2016-01-03T14:00:00Z,29.6350,-93.6417,2.0,230.8993989,13.00184987,-99999.0,'11111222,11111222,99999999' 
TABS,ioos:station:wmo:42051:1,2016-01-03T14:30:00Z,29.6350,-93.6417,2.0,223.476081,15.15865759,-99999.0,'11111222,11111222,99999999' 
TABS,ioos:station:wmo:42051:1,2016-01-03T15:00:00Z,29.6350,-93.6417,2.0,218.3914025,14.6851796,-99999.0,'11111222,11111222,99999999' 
TABS,ioos:station:wmo:42051:1,2016-01-03T15:30:00Z,29.6350,-93.6417,2.0,222.1814407,19.7026115,-99999.0,'11111222,11111222,99999999' 
TABS,ioos:station:wmo:42051:1,2016-01-03T16:00:00Z,29.6350,-93.6417,2.0,229.6626383,19.04886611,-99999.0,'11111222,11111222,99999999' 
TABS,ioos:station:wmo:42051:1,2016-01-03T16:30:00Z,29.6350,-93.6417,2.0,221.0643454,22.6667201,-99999.0,'11111222,11111222,99999999' 
TABS,ioos:station:wmo:42051:1,2016-01-03T17:00:00Z,29.6350,-93.6417,2.0,221.6046101,21.61175837,-99999.0,'11111222,11111222,99999999' 
TABS,ioos:station:wmo:42051:1,2016-01-03T17:30:00Z,29.6350,-93.6417,2.0,226.8358342,20.52370581,-99999.0,'11111222,11111222,99999999' 
TABS,ioos:station:wmo:42051:1,2016-01-03T18:00:00Z,29.6350,-93.6417,2.0,231.1721126,19.20320807,-99999.0,'11111222,11111222,99999999' 
TABS,ioos:station:wmo:42051:1,2016-01-03T18:30:00Z,29.6350,-93.6417,2.0,229.3916152,18.37509456,-99999.0,'11111222,11111222,99999999' 
TABS,ioos:station:wmo:42051:1,2016-01-03T19:00:00Z,29.6350,-93.6417,2.0,226.9349232,17.5887066,-99999.0,'11111222,11111222,99999999' 
TABS,ioos:station:wmo:42051:1,2016-01-03T19:30:00Z,29.6350,-93.6417,2.0,224.2918526,19.46106369,-99999.0,'11111222,11111222,99999999' 
TABS,ioos:station:wmo:42051:1,2016-01-03T20:00:00Z,29.6350,-93.6417,2.0,229.2683814,14.81964237,-99999.0,'11111222,11111222,99999999' 
TABS,ioos:station:wmo:42051:1,2016-01-03T20:30:00Z,29.6350,-93.6417,2.0,218.7189048,19.58420026,-99999.0,'11111222,11111222,99999999' 
TABS,ioos:station:wmo:42051:1,2016-01-03T21:00:00Z,29.6350,-93.6417,2.0,230.9739936,18.34298231,-99999.0,'11111222,11111222,99999999' 
TABS,ioos:station:wmo:42051:1,2016-01-03T21:30:00Z,29.6350,-93.6417,2.0,233.0337478,20.28802849,-99999.0,'11111222,11111222,99999999' 
TABS,ioos:station:wmo:42051:1,2016-01-03T22:00:00Z,29.6350,-93.6417,2.0,235.6394427,17.31060369,-99999.0,'11111222,11111222,99999999' 
TABS,ioos:station:wmo:42051:1,2016-01-03T22:30:00Z,29.6350,-93.6417,2.0,244.10976,15.93979925,-99999.0,'11111222,11111222,99999999' 
TABS,ioos:station:wmo:42051:1,2016-01-03T23:00:00Z,29.6350,-93.6417,2.0,234.5302167,13.6660821,-99999.0,'11111222,11111222,99999999' 
TABS,ioos:station:wmo:42051:1,2016-01-03T23:30:00Z,29.6350,-93.6417,2.0,231.126603,15.10523088,-99999.0,'11111222,11111222,99999999' 
TABS,ioos:station:wmo:42051:1,2016-01-04T00:00:00Z,29.6350,-93.6417,2.0,236.0719023,12.7027438,-99999.0,'11111222,11111222,99999999' 
TABS,ioos:station:wmo:42051:1,2016-01-04T00:30:00Z,29.6350,-93.6417,2.0,238.7769008,13.65828686,-99999.0,'11111222,11111222,99999999' 
TABS,ioos:station:wmo:42051:1,2016-01-04T01:00:00Z,29.6350,-93.6417,2.0,240.3875804,13.37718206,-99999.0,'11111222,11111222,99999999' 
TABS,ioos:station:wmo:42051:1,2016-01-04T01:30:00Z,29.6350,-93.6417,2.0,245.9233596,14.31539381,-99999.0,'11111222,11111222,99999999' 
TABS,ioos:station:wmo:42051:1,2016-01-04T02:00:00Z,29.6350,-93.6417,2.0,263.6047725,11.58206372,-99999.0,'11111222,11111222,99999999' 
TABS,ioos:station:wmo:42051:1,2016-01-04T02:30:00Z,29.6350,-93.6417,2.0,259.7328143,10.77248346,-99999.0,'11111222,11111222,99999999' 
TABS,ioos:station:wmo:42051:1,2016-01-04T03:00:00Z,29.6350,-93.6417,2.0,250.9620715,7.817582747,-99999.0,'11133222,11111222,99999999' 
TABS,ioos:station:wmo:42051:1,2016-01-04T03:30:00Z,29.6350,-93.6417,2.0,240.7721239,11.26405344,-99999.0,'11111222,11111222,99999999' 
TABS,ioos:station:wmo:42051:1,2016-01-04T04:00:00Z,29.6350,-93.6417,2.0,235.3282011,13.76413092,-99999.0,'11111222,11111222,99999999' 
TABS,ioos:station:wmo:42051:1,2016-01-04T04:30:00Z,29.6350,-93.6417,2.0,232.4424621,15.33910362,-99999.0,'11111222,11111222,99999999' 
TABS,ioos:station:wmo:42051:1,2016-01-04T05:00:00Z,29.6350,-93.6417,2.0,231.6261939,15.62538,-99999.0,'11111222,11111222,99999999' 
TABS,ioos:station:wmo:42051:1,2016-01-04T05:30:00Z,29.6350,-93.6417,2.0,225.325082,16.18593525,-99999.0,'11111222,11111222,99999999' 
TABS,ioos:station:wmo:42051:1,2016-01-04T06:00:00Z,29.6350,-93.6417,2.0,219.4493679,14.84104107,-99999.0,'11111222,11111222,99999999' 
TABS,ioos:station:wmo:42051:1,2016-01-04T06:30:00Z,29.6350,-93.6417,2.0,211.4797501,15.60700484,-99999.0,'11111222,11111222,99999999' 
TABS,ioos:station:wmo:42051:1,2016-01-04T07:00:00Z,29.6350,-93.6417,2.0,211.6548765,18.90223532,-99999.0,'11111222,11111222,99999999' 
TABS,ioos:station:wmo:42051:1,2016-01-04T07:30:00Z,29.6350,-93.6417,2.0,219.4692859,18.12265157,-99999.0,'11111222,11111222,99999999' 
TABS,ioos:station:wmo:42051:1,2016-01-04T08:00:00Z,29.6350,-93.6417,2.0,222.1651709,19.58961204,-99999.0,'11111222,11111222,99999999' 
TABS,ioos:station:wmo:42051:1,2016-01-04T08:30:00Z,29.6350,-93.6417,2.0,219.8052676,18.19788174,-99999.0,'11111222,11111222,99999999' 
TABS,ioos:station:wmo:42051:1,2016-01-04T09:00:00Z,29.6350,-93.6417,2.0,216.1812997,17.4812614,-99999.0,'11111222,11111222,99999999' 
TABS,ioos:station:wmo:42051:1,2016-01-04T09:30:00Z,29.6350,-93.6417,2.0,206.6045304,19.33752052,-99999.0,'11111222,11111222,99999999' 
TABS,ioos:station:wmo:42051:1,2016-01-04T10:00:00Z,29.6350,-93.6417,2.0,207.7597122,18.44262725,-99999.0,'11111222,11111222,99999999' 
TABS,ioos:station:wmo:42051:1,2016-01-04T10:30:00Z,29.6350,-93.6417,2.0,219.8762141,17.57819672,-99999.0,'11111222,11111222,99999999' 
TABS,ioos:station:wmo:42051:1,2016-01-04T11:00:00Z,29.6350,-93.6417,2.0,225.3425264,20.0892633,-99999.0,'11111222,11111222,99999999' 
TABS,ioos:station:wmo:42051:1,2016-01-04T11:30:00Z,29.6350,-93.6417,2.0,239.4987895,19.74184642,-99999.0,'11111222,11111222,99999999' 
TABS,ioos:station:wmo:42051:1,2016-01-04T12:00:00Z,29.6350,-93.6417,2.0,232.2329034,19.03833238,-99999.0,'11111222,11111222,99999999' 
TABS,ioos:station:wmo:42051:1,2016-01-04T12:30:00Z,29.6350,-93.6417,2.0,243.3341595,20.41085985,-99999.0,'11111222,11111222,99999999' 
TABS,ioos:station:wmo:42051:1,2016-01-04T13:00:00Z,29.6350,-93.6417,2.0,252.9006777,22.24318323,-99999.0,'11111222,11111222,99999999' 
TABS,ioos:station:wmo:42051:1,2016-01-04T13:30:00Z,29.6350,-93.6417,2.0,252.2317335,24.44606308,-99999.0,'11111222,11111222,99999999' 
TABS,ioos:station:wmo:42051:1,2016-01-04T14:00:00Z,29.6350,-93.6417,2.0,254.5444603,27.13107812,-99999.0,'11111222,11111222,99999999' 
TABS,ioos:station:wmo:42051:1,2016-01-04T14:30:00Z,29.6350,-93.6417,2.0,265.1517459,27.68905379,-99999.0,'11111222,11111222,99999999' 
TABS,ioos:station:wmo:42051:1,2016-01-04T15:00:00Z,29.6350,-93.6417,2.0,258.3199727,25.8349163,-99999.0,'11111222,11111222,99999999' 
TABS,ioos:station:wmo:42051:1,2016-01-04T15:30:00Z,29.6350,-93.6417,2.0,261.7169733,26.03152128,-99999.0,'11111222,11111222,99999999' 
TABS,ioos:station:wmo:42051:1,2016-01-04T16:00:00Z,29.6350,-93.6417,2.0,265.7768104,27.97594681,-99999.0,'11111222,11111222,99999999' 